ONEWEB-0139 (47285 NORAD) Tracking and Keplerian Element Data
This shows tracking and keplerian element data for the satellite.
Feedback or suggestion? Click here.
Element | Value |
Catalog | 47285 |
Name | ONEWEB-0139 |
Epoch Orbit | 180 |
Epoch Day | 15.91667824 |
Epoch Year | 2021 |
RAAN | 29.5912 |
Inclination | 87.4377 |
Eccentricity | 0.0013357 |
Argument of Perigee | 145.4077 |
Mean Anonmoly | 284.6837 |
Mean Motion | 15.23949417 |
Decay Rate | -0.01339877 |
L1 | 1 47285U 20100AD 21015.91667824 -.01339877 00000-0 -60719-1 0 9995 |
L2 | 2 47285 87.4377 29.5912 0013357 145.4077 284.6837 15.23949417 1801 |
Live tracking and technical data element details for ONEWEB-0139 (NORAD 47285). ONEWEB-0139 can be tracked NOW for your location showing map with azimuth and elevation plus other details from your city location.
Track the satellite on the map from your city or location and see movement details for azimuth, elevation, latitude, longitude, range, height, and movement on the map or in text.
IsCatalogInMostPopularTable: catalog: 47285, numindb: 11
Update: records affected: 1
GetName: 47285 ONEWEB-0139
Hit Count: updated at: Sun, 17 Jan 2021 08:31:54 GMT